カタログに戻る

STARLINK-35562

運用中通信VLEO
NORAD 66063·PAYLOAD·🇺🇸 United States

打ち上げ Oct 19, 2025 から Cape Canaveral Space Force Station

Loading…

次のパス (今後24時間)

TLE

最新Source: CelesTrak SupGP

元期: Sep 15, 2026, 03:56 UTC

1 66063C 25235F   26258.16437500 -.00028318  00000+0 -83674-3 0  2589
2 66063  53.1589  84.5749 0001171  85.3522 123.7701 15.34401994    18

AllMySatでSTARLINK-35562をリアルタイム追跡

Download on the App Store